| time (UTC) | temp C | wind direction | speed KPH | gust KPH | rain 1hr cm | rain 24hr cm | rain mn cm | humidity % | barometer mb |
| 20260502130742 | 13 | 285 | 3.2 | 9.7 | 0.00 | 0.00 | 0.00 | 83 | 1019.9 |
| 20260502130239 | 12 | 282 | 1.6 | 9.7 | 0.00 | 0.00 | 0.00 | 84 | 1019.9 |
| 20260502123709 | 12 | 282 | 1.6 | 6.4 | 0.00 | 0.00 | 0.00 | 84 | 1019.4 |
| 20260502123203 | 12 | 279 | 1.6 | 6.4 | 0.00 | 0.00 | 0.00 | 84 | 1019.2 |
| 20260502122658 | 11 | 281 | 1.6 | 6.4 | 0.00 | 0.00 | 0.00 | 85 | 1019.1 |
| 20260502122152 | 11 | 286 | 0.0 | 3.2 | 0.00 | 0.00 | 0.00 | 84 | 1018.9 |
| 20260502121645 | 11 | 287 | 0.0 | 4.8 | 0.00 | 0.00 | 0.00 | 84 | 1018.9 |
| 20260502121140 | 11 | 288 | 0.0 | 4.8 | 0.00 | 0.00 | 0.00 | 84 | 1018.8 |
| 20260502120634 | 11 | 287 | 0.0 | 6.4 | 0.00 | 0.00 | 0.00 | 84 | 1018.7 |
| 20260502120128 | 11 | 285 | 1.6 | 6.4 | 0.00 | 0.00 | 0.00 | 84 | 1018.6 |
| 20260502115621 | 11 | 285 | 1.6 | 6.4 | 0.00 | 0.00 | 0.00 | 84 | 1018.6 |
| 20260502115115 | 11 | 286 | 1.6 | 6.4 | 0.00 | 0.00 | 0.00 | 84 | 1018.5 |
| 20260502114609 | 11 | 299 | 1.6 | 6.4 | 0.00 | 0.00 | 0.00 | 85 | 1018.5 |
| 20260502114104 | 11 | 311 | 1.6 | 6.4 | 0.00 | 0.00 | 0.00 | 86 | 1018.4 |
| 20260502113559 | 11 | 276 | 1.6 | 6.4 | 0.00 | 0.00 | 0.00 | 86 | 1018.3 |
| 20260502113052 | 11 | 265 | 0.0 | 4.8 | 0.00 | 0.00 | 0.00 | 86 | 1018.3 |
| 20260502112545 | 11 | 296 | 0.0 | 6.4 | 0.00 | 0.00 | 0.00 | 85 | 1018.2 |
| 20260502112039 | 11 | 298 | 0.0 | 6.4 | 0.00 | 0.00 | 0.00 | 85 | 1018.0 |
| 20260502111754 | 11 | 240 | 0.0 | 0.0 | 0.00 | 0.00 | 0.00 | 85 | 1017.9 |
| 20260502111027 | 11 | 240 | 0.0 | 1.6 | 0.00 | 0.00 | 0.00 | 85 | 1017.9 |
| 20260502110521 | 11 | 240 | 0.0 | 3.2 | 0.00 | 0.00 | 0.00 | 85 | 1017.8 |
| 20260502110015 | 11 | 240 | 0.0 | 4.8 | 0.00 | 0.00 | 0.00 | 84 | 1017.9 |
| 20260502105510 | 11 | 240 | 1.6 | 6.4 | 0.00 | 0.00 | 0.00 | 85 | 1018.0 |
| 20260502105006 | 11 | 235 | 3.2 | 6.4 | 0.00 | 0.00 | 0.00 | 85 | 1018.0 |
| 20260502104457 | 11 | 248 | 1.6 | 4.8 | 0.00 | 0.00 | 0.00 | 84 | 1018.1 |
| 20260502104216 | 11 | 252 | 0.0 | 3.2 | 0.00 | 0.00 | 0.00 | 84 | 1017.9 |
| 20260502103446 | 11 | 252 | 0.0 | 3.2 | 0.00 | 0.00 | 0.00 | 84 | 1017.8 |
| 20260502102940 | 11 | 252 | 0.0 | 1.6 | 0.00 | 0.00 | 0.00 | 84 | 1017.8 |
| 20260502102434 | 11 | 252 | 0.0 | 1.6 | 0.00 | 0.00 | 0.00 | 84 | 1017.8 |
| 20260502101927 | 11 | 250 | 0.0 | 0.0 | 0.00 | 0.00 | 0.00 | 84 | 1017.8 |
| 20260502101421 | 11 | 250 | 0.0 | 0.0 | 0.00 | 0.00 | 0.00 | 83 | 1017.7 |
| 20260502100915 | 11 | 250 | 0.0 | 0.0 | 0.00 | 0.00 | 0.00 | 84 | 1017.7 |
| 20260502100408 | 11 | 250 | 0.0 | 0.0 | 0.00 | 0.00 | 0.00 | 84 | 1017.6 |
| 20260502091309 | 11 | 239 | 0.0 | 0.0 | 0.00 | 0.00 | 0.00 | 85 | 1017.6 |
| 20260502090803 | 11 | 239 | 0.0 | 1.6 | 0.00 | 0.00 | 0.00 | 85 | 1017.5 |
| 20260502090739 | 11 | 239 | 0.0 | 1.6 | 0.00 | 0.00 | 0.00 | 85 | 1017.4 |
| 20260502071046 | 11 | 111 | 0.0 | 0.0 | 0.00 | 0.00 | 0.00 | 84 | 1017.5 |
| 20260502070805 | 11 | 111 | 0.0 | 0.0 | 0.00 | 0.00 | 0.00 | 84 | 1017.5 |
| 20260502070253 | 11 | 111 | 0.0 | 0.0 | 0.00 | 0.00 | 0.00 | 83 | 1017.6 |
| 20260502065526 | 11 | 111 | 0.0 | 0.0 | 0.00 | 0.00 | 0.00 | 84 | 1017.7 |
| 20260502065021 | 11 | 111 | 0.0 | 0.0 | 0.00 | 0.00 | 0.00 | 83 | 1017.8 |
| 20260502064737 | 11 | 111 | 0.0 | 0.0 | 0.00 | 0.00 | 0.00 | 83 | 1017.9 |
| 20260502064010 | 11 | 111 | 0.0 | 0.0 | 0.00 | 0.00 | 0.00 | 83 | 1017.8 |
| 20260502063734 | 11 | 111 | 0.0 | 0.0 | 0.00 | 0.00 | 0.00 | 83 | 1017.8 |
| 20260502062957 | 12 | 111 | 0.0 | 0.0 | 0.00 | 0.00 | 0.00 | 83 | 1017.8 |
| 20260502062451 | 12 | 111 | 0.0 | 0.0 | 0.00 | 0.00 | 0.00 | 83 | 1017.9 |
| 20260502061946 | 12 | 111 | 0.0 | 0.0 | 0.00 | 0.00 | 0.00 | 83 | 1017.8 |
| 20260502061439 | 12 | 111 | 0.0 | 0.0 | 0.00 | 0.00 | 0.00 | 83 | 1017.8 |
| 20260502060937 | 12 | 111 | 0.0 | 0.0 | 0.00 | 0.00 | 0.00 | 83 | 1017.8 |
| 20260502060437 | 12 | 111 | 0.0 | 0.0 | 0.00 | 0.00 | 0.00 | 83 | 1017.6 |
| 20260502060201 | 12 | 111 | 0.0 | 0.0 | 0.00 | 0.00 | 0.00 | 83 | 1017.5 |
| 20260502055438 | 12 | 111 | 0.0 | 0.0 | 0.00 | 0.00 | 0.00 | 82 | 1017.5 |
| 20260502054935 | 12 | 111 | 0.0 | 0.0 | 0.00 | 0.00 | 0.00 | 82 | 1017.6 |
| 20260502054433 | 12 | 111 | 0.0 | 0.0 | 0.00 | 0.00 | 0.00 | 83 | 1017.6 |
| 20260502053934 | 12 | 111 | 0.0 | 0.0 | 0.00 | 0.00 | 0.00 | 82 | 1017.7 |
| 20260502053434 | 12 | 111 | 0.0 | 0.0 | 0.00 | 0.00 | 0.00 | 82 | 1017.7 |
| 20260502053157 | 12 | 111 | 0.0 | 0.0 | 0.00 | 0.00 | 0.00 | 82 | 1017.7 |
| 20260502052429 | 12 | 111 | 0.0 | 0.0 | 0.00 | 0.00 | 0.00 | 82 | 1017.8 |
| 20260502051929 | 12 | 111 | 0.0 | 0.0 | 0.00 | 0.00 | 0.00 | 82 | 1017.7 |
| 20260502051430 | 12 | 111 | 0.0 | 0.0 | 0.00 | 0.00 | 0.00 | 81 | 1017.7 |
| 20260502050927 | 12 | 111 | 0.0 | 0.0 | 0.00 | 0.00 | 0.00 | 81 | 1017.7 |
| 20260502050425 | 12 | 111 | 0.0 | 0.0 | 0.00 | 0.00 | 0.00 | 82 | 1017.7 |
| 20260502045925 | 12 | 111 | 0.0 | 0.0 | 0.00 | 0.00 | 0.00 | 81 | 1017.6 |
| 20260502045424 | 13 | 111 | 0.0 | 0.0 | 0.00 | 0.00 | 0.00 | 81 | 1017.6 |
| 20260502044927 | 13 | 111 | 0.0 | 0.0 | 0.00 | 0.00 | 0.00 | 81 | 1017.5 |
| 20260502044421 | 13 | 111 | 0.0 | 0.0 | 0.00 | 0.00 | 0.00 | 81 | 1017.4 |
| 20260502043921 | 13 | 111 | 0.0 | 0.0 | 0.00 | 0.00 | 0.00 | 81 | 1017.4 |
| 20260502043421 | 13 | 111 | 0.0 | 0.0 | 0.00 | 0.00 | 0.00 | 81 | 1017.5 |
| 20260502043406 | 13 | 111 | 0.0 | 0.0 | 0.00 | 0.00 | 0.00 | 80 | 1017.3 |
| 20260502042421 | 13 | 111 | 0.0 | 0.0 | 0.00 | 0.00 | 0.00 | 80 | 1017.3 |
| 20260502041921 | 13 | 111 | 0.0 | 0.0 | 0.00 | 0.00 | 0.00 | 79 | 1017.4 |
| 20260502041639 | 13 | 111 | 0.0 | 0.0 | 0.00 | 0.00 | 0.00 | 78 | 1017.3 |
| 20260502040921 | 13 | 111 | 0.0 | 0.0 | 0.00 | 0.00 | 0.00 | 78 | 1017.1 |
| 20260502040421 | 13 | 111 | 0.0 | 0.0 | 0.00 | 0.00 | 0.00 | 78 | 1017.3 |
| 20260502040140 | 13 | 111 | 0.0 | 0.0 | 0.00 | 0.00 | 0.00 | 78 | 1017.2 |
| 20260502035418 | 14 | 111 | 0.0 | 0.0 | 0.00 | 0.00 | 0.00 | 78 | 1017.4 |
| 20260502034917 | 14 | 111 | 0.0 | 0.0 | 0.00 | 0.00 | 0.00 | 77 | 1017.4 |
| 20260502034417 | 14 | 111 | 0.0 | 0.0 | 0.00 | 0.00 | 0.00 | 78 | 1017.4 |
| 20260502034135 | 14 | 111 | 0.0 | 0.0 | 0.00 | 0.00 | 0.00 | 78 | 1017.5 |
| 20260502033416 | 14 | 111 | 0.0 | 0.0 | 0.00 | 0.00 | 0.00 | 78 | 1017.4 |
| 20260502032917 | 14 | 111 | 0.0 | 0.0 | 0.00 | 0.00 | 0.00 | 78 | 1017.2 |
| 20260502032418 | 15 | 111 | 0.0 | 0.0 | 0.00 | 0.00 | 0.00 | 76 | 1017.2 |
| 20260502031917 | 15 | 111 | 0.0 | 0.0 | 0.00 | 0.00 | 0.00 | 76 | 1017.0 |
| 20260502031641 | 15 | 111 | 0.0 | 0.0 | 0.00 | 0.00 | 0.00 | 76 | 1017.0 |
| 20260502030913 | 15 | 111 | 0.0 | 0.0 | 0.00 | 0.00 | 0.00 | 75 | 1017.0 |
| 20260502030413 | 15 | 111 | 0.0 | 0.0 | 0.00 | 0.00 | 0.00 | 75 | 1017.1 |
| 20260502030130 | 15 | 111 | 0.0 | 0.0 | 0.00 | 0.00 | 0.00 | 75 | 1016.9 |
| 20260502025634 | 15 | 111 | 0.0 | 0.0 | 0.00 | 0.00 | 0.00 | 75 | 1017.0 |
| 20260502024911 | 15 | 111 | 0.0 | 0.0 | 0.00 | 0.00 | 0.00 | 74 | 1016.9 |
| 20260502024627 | 15 | 112 | 0.0 | 0.0 | 0.00 | 0.00 | 0.00 | 74 | 1016.8 |
| 20260502023911 | 15 | 112 | 0.0 | 0.0 | 0.00 | 0.00 | 0.00 | 75 | 1016.7 |
| 20260502023411 | 15 | 112 | 0.0 | 0.0 | 0.00 | 0.00 | 0.00 | 74 | 1016.7 |
| 20260502022911 | 15 | 112 | 0.0 | 0.0 | 0.00 | 0.00 | 0.00 | 74 | 1016.8 |
| 20260502022411 | 15 | 112 | 0.0 | 1.6 | 0.00 | 0.00 | 0.00 | 74 | 1016.8 |
| 20260502022134 | 15 | 112 | 0.0 | 1.6 | 0.00 | 0.00 | 0.00 | 75 | 1016.7 |
| 20260502021411 | 15 | 112 | 0.0 | 0.0 | 0.00 | 0.00 | 0.00 | 75 | 1016.5 |
| 20260502020910 | 15 | 112 | 0.0 | 0.0 | 0.00 | 0.00 | 0.00 | 75 | 1016.4 |
| 20260502020405 | 15 | 112 | 0.0 | 0.0 | 0.00 | 0.00 | 0.00 | 75 | 1016.3 |
| 20260502015858 | 15 | 112 | 0.0 | 0.0 | 0.00 | 0.00 | 0.00 | 74 | 1016.4 |
| 20260502015612 | 15 | 112 | 0.0 | 0.0 | 0.00 | 0.00 | 0.00 | 75 | 1016.2 |
| 20260502014854 | 15 | 112 | 0.0 | 0.0 | 0.00 | 0.00 | 0.00 | 74 | 1015.9 |
| 20260502014353 | 15 | 112 | 0.0 | 0.0 | 0.00 | 0.00 | 0.00 | 74 | 1016.0 |
| 20260502013854 | 15 | 112 | 0.0 | 0.0 | 0.00 | 0.00 | 0.00 | 74 | 1015.8 |
| 20260502013350 | 15 | 111 | 0.0 | 0.0 | 0.00 | 0.00 | 0.00 | 74 | 1015.8 |
| 20260502012850 | 15 | 112 | 0.0 | 0.0 | 0.00 | 0.00 | 0.00 | 74 | 1015.8 |
| 20260502012348 | 15 | 112 | 0.0 | 0.0 | 0.00 | 0.00 | 0.00 | 74 | 1015.6 |
| 20260502012105 | 15 | 112 | 0.0 | 0.0 | 0.00 | 0.00 | 0.00 | 73 | 1015.7 |
| 20260502011346 | 15 | 112 | 0.0 | 0.0 | 0.00 | 0.00 | 0.00 | 72 | 1015.6 |
| 20260502010845 | 15 | 112 | 0.0 | 0.0 | 0.00 | 0.00 | 0.00 | 72 | 1015.6 |
| 20260502010821 | 15 | 112 | 0.0 | 0.0 | 0.00 | 0.00 | 0.00 | 71 | 1015.5 |
| 20260502005841 | 16 | 112 | 0.0 | 0.0 | 0.00 | 0.00 | 0.00 | 71 | 1015.5 |
| 20260502005339 | 16 | 112 | 0.0 | 0.0 | 0.00 | 0.00 | 0.00 | 72 | 1015.5 |
| 20260502004837 | 16 | 112 | 0.0 | 0.0 | 0.00 | 0.00 | 0.00 | 71 | 1015.4 |
| 20260502004335 | 16 | 112 | 0.0 | 0.0 | 0.00 | 0.00 | 0.00 | 71 | 1015.4 |
| 20260502003833 | 16 | 112 | 0.0 | 0.0 | 0.00 | 0.00 | 0.00 | 71 | 1015.3 |
| 20260502003330 | 16 | 112 | 0.0 | 0.0 | 0.00 | 0.00 | 0.00 | 70 | 1015.1 |
| 20260502002829 | 16 | 112 | 0.0 | 3.2 | 0.00 | 0.00 | 0.00 | 70 | 1015.1 |
| 20260502002327 | 16 | 112 | 0.0 | 4.8 | 0.00 | 0.00 | 0.00 | 70 | 1015.3 |
| 20260502001827 | 16 | 111 | 0.0 | 4.8 | 0.00 | 0.00 | 0.00 | 69 | 1015.2 |
| 20260502001326 | 16 | 69 | 0.0 | 1.6 | 0.00 | 0.00 | 0.00 | 70 | 1015.2 |
| 20260502001056 | 16 | 42 | 0.0 | 0.0 | 0.00 | 0.00 | 0.00 | 71 | 1015.1 |
| 20260502000320 | 16 | 42 | 0.0 | 0.0 | 0.00 | 0.00 | 0.00 | 71 | 1014.9 |
| 20260501235815 | 16 | 42 | 0.0 | 3.2 | 0.00 | 0.00 | 0.00 | 71 | 1014.7 |
| 20260501235308 | 16 | 42 | 0.0 | 3.2 | 0.00 | 0.00 | 0.00 | 70 | 1014.6 |
| 20260501234802 | 16 | 42 | 0.0 | 0.0 | 0.00 | 0.00 | 0.00 | 71 | 1014.5 |
| 20260501234256 | 16 | 42 | 0.0 | 0.0 | 0.00 | 0.00 | 0.00 | 70 | 1014.5 |
| 20260501234014 | 16 | 42 | 0.0 | 0.0 | 0.00 | 0.00 | 0.00 | 70 | 1014.5 |
| 20260501233245 | 16 | 42 | 0.0 | 0.0 | 0.00 | 0.00 | 0.00 | 70 | 1014.4 |
| 20260501232739 | 16 | 42 | 0.0 | 0.0 | 0.00 | 0.00 | 0.00 | 70 | 1014.3 |
| 20260501232232 | 16 | 42 | 0.0 | 0.0 | 0.00 | 0.00 | 0.00 | 69 | 1014.6 |
| 20260501231727 | 16 | 42 | 0.0 | 0.0 | 0.00 | 0.00 | 0.00 | 69 | 1014.5 |
| 20260501231221 | 16 | 42 | 0.0 | 0.0 | 0.00 | 0.00 | 0.00 | 69 | 1014.3 |
| 20260501230715 | 16 | 42 | 0.0 | 0.0 | 0.00 | 0.00 | 0.00 | 69 | 1014.3 |
| 20260501230209 | 16 | 42 | 0.0 | 0.0 | 0.00 | 0.00 | 0.00 | 69 | 1014.1 |
| 20260501225703 | 17 | 42 | 0.0 | 0.0 | 0.00 | 0.00 | 0.00 | 68 | 1014.0 |
| 20260501225156 | 17 | 42 | 0.0 | 1.6 | 0.00 | 0.00 | 0.00 | 68 | 1014.0 |
| 20260501224650 | 17 | 42 | 0.0 | 1.6 | 0.00 | 0.00 | 0.00 | 67 | 1014.1 |
| 20260501224144 | 17 | 42 | 0.0 | 1.6 | 0.00 | 0.00 | 0.00 | 67 | 1014.2 |
| 20260501223638 | 17 | 42 | 0.0 | 1.6 | 0.00 | 0.00 | 0.00 | 66 | 1014.1 |
| 20260501223133 | 17 | 42 | 0.0 | 3.2 | 0.00 | 0.00 | 0.00 | 64 | 1014.1 |
| 20260501222627 | 17 | 42 | 0.0 | 4.8 | 0.00 | 0.00 | 0.00 | 62 | 1014.1 |
| 20260501222119 | 17 | 59 | 1.6 | 6.4 | 0.00 | 0.00 | 0.00 | 60 | 1014.1 |
| 20260501221614 | 17 | 61 | 1.6 | 8.0 | 0.00 | 0.00 | 0.00 | 60 | 1014.2 |
| 20260501221108 | 17 | 32 | 1.6 | 8.0 | 0.00 | 0.00 | 0.00 | 59 | 1013.9 |
| 20260501220604 | 17 | 31 | 1.6 | 8.0 | 0.00 | 0.00 | 0.00 | 59 | 1013.9 |
| 20260501220057 | 17 | 48 | 1.6 | 6.4 | 0.00 | 0.00 | 0.00 | 60 | 1013.9 |
| 20260501215550 | 17 | 42 | 1.6 | 6.4 | 0.00 | 0.00 | 0.00 | 59 | 1013.9 |
| 20260501215309 | 17 | 355 | 1.6 | 4.8 | 0.00 | 0.00 | 0.00 | 59 | 1014.0 |
| 20260501214538 | 17 | 29 | 1.6 | 6.4 | 0.00 | 0.00 | 0.00 | 58 | 1014.0 |
| 20260501214033 | 17 | 30 | 1.6 | 6.4 | 0.00 | 0.00 | 0.00 | 59 | 1014.1 |
| 20260501213751 | 17 | 24 | 1.6 | 4.8 | 0.00 | 0.00 | 0.00 | 58 | 1014.1 |
| 20260501213020 | 17 | 29 | 3.2 | 8.0 | 0.00 | 0.00 | 0.00 | 58 | 1014.0 |
| 20260501212514 | 17 | 30 | 4.8 | 9.7 | 0.00 | 0.00 | 0.00 | 56 | 1013.9 |
| 20260501212226 | 17 | 51 | 3.2 | 12.9 | 0.00 | 0.00 | 0.00 | 56 | 1013.9 |
| 20260501211503 | 17 | 300 | 1.6 | 9.7 | 0.00 | 0.00 | 0.00 | 58 | 1014.0 |
| 20260501211222 | 17 | 28 | 1.6 | 11.3 | 0.00 | 0.00 | 0.00 | 59 | 1014.0 |
| 20260501210451 | 17 | 19 | 3.2 | 11.3 | 0.00 | 0.00 | 0.00 | 58 | 1014.0 |
| 20260501205945 | 17 | 340 | 3.2 | 8.0 | 0.00 | 0.00 | 0.00 | 57 | 1013.9 |
| 20260501205439 | 17 | 33 | 3.2 | 9.7 | 0.00 | 0.00 | 0.00 | 55 | 1014.0 |
| 20260501205156 | 17 | 26 | 3.2 | 9.7 | 0.00 | 0.00 | 0.00 | 55 | 1014.2 |
| 20260501204656 | 17 | 42 | 3.2 | 6.4 | 0.00 | 0.00 | 0.00 | 56 | 1014.3 |
| 20260501203920 | 17 | 78 | 3.2 | 8.0 | 0.00 | 0.00 | 0.00 | 56 | 1014.6 |
| 20260501203414 | 17 | 36 | 3.2 | 8.0 | 0.00 | 0.00 | 0.00 | 55 | 1014.5 |
| 20260501202907 | 17 | 43 | 1.6 | 8.0 | 0.00 | 0.00 | 0.00 | 56 | 1014.4 |
| 20260501202402 | 17 | 39 | 1.6 | 8.0 | 0.00 | 0.00 | 0.00 | 57 | 1014.5 |
| 20260501201856 | 17 | 5 | 3.2 | 8.0 | 0.00 | 0.00 | 0.00 | 56 | 1014.5 |
| 20260501201351 | 17 | 43 | 1.6 | 8.0 | 0.00 | 0.00 | 0.00 | 56 | 1014.6 |
| 20260501200845 | 17 | 32 | 1.6 | 6.4 | 0.00 | 0.00 | 0.00 | 55 | 1014.8 |
| 20260501200607 | 17 | 25 | 1.6 | 6.4 | 0.00 | 0.00 | 0.00 | 56 | 1014.8 |
| 20260501195832 | 17 | 44 | 3.2 | 12.9 | 0.00 | 0.00 | 0.00 | 56 | 1014.7 |
| 20260501195326 | 17 | 355 | 3.2 | 12.9 | 0.00 | 0.00 | 0.00 | 55 | 1014.5 |
| 20260501194820 | 17 | 302 | 1.6 | 8.0 | 0.00 | 0.00 | 0.00 | 57 | 1014.2 |
| 20260501194315 | 17 | 355 | 1.6 | 6.4 | 0.00 | 0.00 | 0.00 | 57 | 1014.0 |
| 20260501193809 | 17 | 96 | 1.6 | 6.4 | 0.00 | 0.00 | 0.00 | 59 | 1013.9 |
| 20260501193531 | 17 | 14 | 1.6 | 6.4 | 0.00 | 0.00 | 0.00 | 58 | 1014.1 |
| 20260501192757 | 17 | 29 | 1.6 | 6.4 | 0.00 | 0.00 | 0.00 | 58 | 1014.0 |
| 20260501192250 | 17 | 42 | 1.6 | 6.4 | 0.00 | 0.00 | 0.00 | 59 | 1013.9 |
| 20260501191745 | 17 | 55 | 1.6 | 8.0 | 0.00 | 0.00 | 0.00 | 59 | 1014.2 |
| 20260501191454 | 17 | 34 | 3.2 | 16.1 | 0.00 | 0.00 | 0.00 | 58 | 1014.3 |
| 20260501190732 | 17 | 21 | 3.2 | 11.3 | 0.00 | 0.00 | 0.00 | 58 | 1014.0 |
| 20260501190226 | 18 | 93 | 3.2 | 11.3 | 0.00 | 0.00 | 0.00 | 57 | 1014.2 |
| 20260501185941 | 18 | 28 | 1.6 | 8.0 | 0.00 | 0.00 | 0.00 | 56 | 1014.2 |
| 20260501185213 | 18 | 27 | 3.2 | 11.3 | 0.00 | 0.00 | 0.00 | 57 | 1014.1 |
| 20260501184710 | 18 | 19 | 3.2 | 11.3 | 0.00 | 0.00 | 0.00 | 57 | 1014.2 |
| 20260501184202 | 18 | 60 | 3.2 | 16.1 | 0.00 | 0.00 | 0.00 | 59 | 1014.0 |
| 20260501183658 | 17 | 90 | 3.2 | 16.1 | 0.00 | 0.00 | 0.00 | 57 | 1014.1 |
| 20260501183150 | 17 | 81 | 3.2 | 12.9 | 0.00 | 0.00 | 0.00 | 59 | 1014.6 |
| 20260501182644 | 17 | 24 | 3.2 | 9.7 | 0.00 | 0.00 | 0.00 | 58 | 1014.4 |
| 20260501182138 | 17 | 71 | 3.2 | 11.3 | 0.00 | 0.00 | 0.00 | 58 | 1014.4 |
| 20260501181633 | 17 | 33 | 3.2 | 11.3 | 0.00 | 0.00 | 0.00 | 59 | 1014.7 |
| 20260501181126 | 17 | 85 | 3.2 | 8.0 | 0.00 | 0.00 | 0.00 | 60 | 1015.0 |
| 20260501180842 | 17 | 0 | 3.2 | 9.7 | 0.00 | 0.00 | 0.00 | 59 | 1014.9 |
| 20260501180114 | 17 | 65 | 3.2 | 9.7 | 0.00 | 0.00 | 0.00 | 59 | 1014.8 |
| 20260501175608 | 17 | 33 | 3.2 | 9.7 | 0.00 | 0.00 | 0.00 | 59 | 1014.9 |
| 20260501175322 | 17 | 331 | 3.2 | 8.0 | 0.00 | 0.00 | 0.00 | 62 | 1015.0 |
| 20260501174605 | 17 | 33 | 3.2 | 11.3 | 0.00 | 0.03 | 0.00 | 61 | 1015.0 |
| 20260501174104 | 17 | 38 | 3.2 | 11.3 | 0.00 | 0.03 | 0.00 | 60 | 1015.0 |
| 20260501173602 | 17 | 67 | 3.2 | 8.0 | 0.00 | 0.03 | 0.00 | 60 | 1015.0 |
| 20260501173103 | 17 | 30 | 3.2 | 8.0 | 0.00 | 0.03 | 0.00 | 61 | 1015.1 |
| 20260501172603 | 17 | 36 | 3.2 | 8.0 | 0.00 | 0.05 | 0.00 | 62 | 1015.2 |
| 20260501172100 | 17 | 32 | 1.6 | 8.0 | 0.00 | 0.05 | 0.00 | 63 | 1015.5 |
| 20260501171558 | 16 | 28 | 1.6 | 8.0 | 0.00 | 0.08 | 0.00 | 64 | 1015.5 |
| 20260501171059 | 16 | 85 | 1.6 | 8.0 | 0.00 | 0.08 | 0.00 | 64 | 1015.6 |
| 20260501170558 | 16 | 50 | 1.6 | 8.0 | 0.00 | 0.08 | 0.00 | 65 | 1015.6 |
| 20260501170056 | 16 | 48 | 1.6 | 8.0 | 0.00 | 0.08 | 0.00 | 67 | 1015.8 |
| 20260501165556 | 16 | 35 | 1.6 | 8.0 | 0.00 | 0.10 | 0.00 | 67 | 1015.6 |
| 20260501165057 | 15 | 46 | 1.6 | 6.4 | 0.00 | 0.10 | 0.00 | 66 | 1015.7 |
| 20260501164555 | 15 | 79 | 1.6 | 6.4 | 0.00 | 0.10 | 0.00 | 66 | 1015.8 |
| 20260501164307 | 15 | 44 | 1.6 | 8.0 | 0.00 | 0.10 | 0.00 | 68 | 1015.9 |
| 20260501164257 | 15 | 68 | 1.6 | 8.0 | 0.00 | 0.10 | 0.00 | 68 | 1015.8 |
| 20260501163050 | 15 | 49 | 1.6 | 6.4 | 0.00 | 0.10 | 0.00 | 68 | 1015.9 |
| 20260501162550 | 15 | 84 | 1.6 | 6.4 | 0.00 | 0.10 | 0.00 | 68 | 1015.9 |
| 20260501162051 | 15 | 36 | 1.6 | 12.9 | 0.00 | 0.10 | 0.00 | 67 | 1015.9 |
| 20260501161550 | 15 | 113 | 3.2 | 12.9 | 0.00 | 0.10 | 0.00 | 66 | 1016.0 |
| 20260501161051 | 15 | 71 | 3.2 | 9.7 | 0.00 | 0.10 | 0.00 | 65 | 1016.0 |
| 20260501160550 | 15 | 39 | 3.2 | 12.9 | 0.00 | 0.10 | 0.00 | 66 | 1015.9 |
| 20260501160050 | 15 | 45 | 1.6 | 12.9 | 0.00 | 0.13 | 0.00 | 66 | 1015.7 |
| 20260501155814 | 15 | 52 | 1.6 | 4.8 | 0.00 | 0.13 | 0.00 | 68 | 1015.6 |
| 20260501155050 | 15 | 51 | 1.6 | 6.4 | 0.00 | 0.13 | 0.00 | 68 | 1015.8 |
| 20260501154815 | 15 | 74 | 1.6 | 6.4 | 0.00 | 0.13 | 0.00 | 68 | 1015.7 |
| 20260501154046 | 15 | 90 | 0.0 | 4.8 | 0.00 | 0.13 | 0.00 | 68 | 1016.3 |
| 20260501153546 | 15 | 65 | 1.6 | 6.4 | 0.00 | 0.13 | 0.00 | 69 | 1016.3 |
| 20260501153046 | 15 | 67 | 1.6 | 6.4 | 0.00 | 0.13 | 0.00 | 69 | 1016.3 |
| 20260501152546 | 14 | 67 | 1.6 | 8.0 | 0.00 | 0.13 | 0.00 | 70 | 1015.9 |
| 20260501152047 | 14 | 44 | 1.6 | 8.0 | 0.00 | 0.13 | 0.00 | 70 | 1015.7 |
| 20260501151546 | 14 | 69 | 0.0 | 6.4 | 0.00 | 0.13 | 0.00 | 71 | 1015.6 |
| 20260501151046 | 14 | 68 | 0.0 | 6.4 | 0.00 | 0.13 | 0.00 | 73 | 1015.8 |
| 20260501150546 | 14 | 60 | 0.0 | 4.8 | 0.00 | 0.13 | 0.00 | 73 | 1015.6 |
| 20260501150046 | 14 | 55 | 0.0 | 4.8 | 0.00 | 0.13 | 0.00 | 73 | 1015.7 |
| 20260501145547 | 14 | 41 | 1.6 | 4.8 | 0.00 | 0.13 | 0.00 | 73 | 1015.5 |
| 20260501145046 | 14 | 78 | 1.6 | 6.4 | 0.00 | 0.13 | 0.00 | 74 | 1015.8 |
| 20260501144814 | 14 | 94 | 0.0 | 6.4 | 0.00 | 0.13 | 0.00 | 74 | 1016.0 |
| 20260501144046 | 14 | 51 | 0.0 | 4.8 | 0.00 | 0.13 | 0.00 | 74 | 1016.1 |
| 20260501143546 | 14 | 56 | 0.0 | 4.8 | 0.00 | 0.13 | 0.00 | 75 | 1015.8 |
| 20260501143048 | 14 | 51 | 1.6 | 8.0 | 0.00 | 0.13 | 0.00 | 74 | 1015.7 |
| 20260501142547 | 14 | 59 | 1.6 | 8.0 | 0.00 | 0.13 | 0.00 | 75 | 1015.7 |
| 20260501142045 | 14 | 84 | 1.6 | 3.2 | 0.00 | 0.13 | 0.00 | 77 | 1015.7 |
| 20260501142034 | 14 | 84 | 1.6 | 3.2 | 0.00 | 0.13 | 0.00 | 77 | 1015.6 |
| 20260501141046 | 14 | 42 | 0.0 | 3.2 | 0.00 | 0.13 | 0.00 | 77 | 1015.5 |
| 20260501140546 | 14 | 53 | 0.0 | 6.4 | 0.00 | 0.13 | 0.00 | 78 | 1015.3 |
| 20260501140307 | 14 | 46 | 0.0 | 6.4 | 0.00 | 0.13 | 0.00 | 77 | 1015.1 |
| 20260501135546 | 14 | 45 | 0.0 | 4.8 | 0.00 | 0.13 | 0.00 | 77 | 1015.0 |
| 20260501135046 | 14 | 46 | 1.6 | 4.8 | 0.00 | 0.13 | 0.00 | 77 | 1015.0 |
| 20260501134546 | 14 | 49 | 1.6 | 4.8 | 0.00 | 0.13 | 0.00 | 77 | 1015.0 |
| 20260501134046 | 14 | 78 | 0.0 | 4.8 | 0.00 | 0.13 | 0.00 | 79 | 1015.1 |
| 20260501133546 | 14 | 76 | 0.0 | 1.6 | 0.00 | 0.13 | 0.00 | 80 | 1015.1 |
| 20260501133300 | 14 | 76 | 0.0 | 1.6 | 0.00 | 0.13 | 0.00 | 80 | 1015.2 |